This is the latest recevied weather packets stored in our database for station/object W6SNO-1. If no packets are shown the sender has not sent any weather packets the latest 10 day(s).
| Time | Temp. | Humidity | Pressure | Rain* | Wind** | Luminosity | Snow |
|---|---|---|---|---|---|---|---|
| 1777592721 | 22.22° C | 54% | 1012.9 hPa | 0 mm | - | 401 W/m² | - |
| 1777591505 | 22.78° C | 55% | 1013.1 hPa | 0 mm | - | 481 W/m² | - |
| 1777591202 | 22.78° C | 55% | 1013 hPa | 0 mm | - | 481 W/m² | - |
| 1777590598 | 22.78° C | 55% | 1012.9 hPa | 0 mm | - | 516 W/m² | - |
| 1777590294 | 22.78° C | 55% | 1013.2 hPa | 0 mm | - | 516 W/m² | - |
| 1777589688 | 23.33° C | 54% | 1013.3 hPa | 0 mm | - | 554 W/m² | - |
| 1777589386 | 23.33° C | 54% | 1013.2 hPa | 0 mm | - | 554 W/m² | - |
| 1777588778 | 22.78° C | 56% | 1013.3 hPa | 0 mm | - | 604 W/m² | - |
| 1777588474 | 22.78° C | 56% | 1013.5 hPa | 0 mm | - | 604 W/m² | - |
| 1777587866 | 22.22° C | 57% | 1013.5 hPa | 0 mm | - | 634 W/m² | - |
| 1777587562 | 22.22° C | 57% | 1013.5 hPa | 0 mm | - | 634 W/m² | - |
| 1777587262 | 23.33° C | 55% | 1013.5 hPa | 0 mm | - | 663 W/m² | - |
| 1777586958 | 23.33° C | 55% | 1013.5 hPa | 0 mm | - | 663 W/m² | - |
| 1777586654 | 23.89° C | 53% | 1013.5 hPa | 0 mm | - | 669 W/m² | - |
| 1777586049 | 23.89° C | 51% | 1013.7 hPa | 0 mm | - | 695 W/m² | - |
| 1777585748 | 23.89° C | 51% | 1013.6 hPa | 0 mm | - | 695 W/m² | - |
| 1777584537 | 23.33° C | 50% | 1013.9 hPa | 0 mm | - | 736 W/m² | - |
| 1777584234 | 23.33° C | 50% | 1013.8 hPa | 0 mm | - | 736 W/m² | - |
| 1777583933 | 23.33° C | 49% | 1013.7 hPa | 0 mm | - | 739 W/m² | - |
| 1777583629 | 23.33° C | 49% | 1013.8 hPa | 0 mm | - | 745 W/m² | - |
| 1777582720 | 23.33° C | 48% | 1013.7 hPa | 0 mm | - | 769 W/m² | - |
| 1777582415 | 23.33° C | 48% | 1013.7 hPa | 0 mm | - | 769 W/m² | - |
| 1777582115 | 23.33° C | 49% | 1014 hPa | 0 mm | - | 775 W/m² | - |
| 1777581507 | 23.33° C | 48% | 1014 hPa | 0 mm | - | 788 W/m² | - |
| 1777581203 | 23.33° C | 48% | 1014 hPa | 0 mm | - | 788 W/m² | - |
* Rain latest hour (hover to see other rain measurements)
** Current wind speed in m/s (hover to see current wind gust speed)